| time (UTC) | temp C | wind direction | speed KPH | gust KPH | rain 1hr cm | rain 24hr cm | rain mn cm | humidity % | barometer mb |
| 20260506201519 | 12 | 182 | 6.4 | 16.1 | 0.13 | 0.51 | 0.43 | 95 | 1006.1 |
| 20260506201325 | 12 | 183 | 4.8 | 16.1 | 0.13 | 0.51 | 0.43 | 95 | 1006.3 |
| 20260506200328 | 12 | 183 | 9.7 | 17.7 | 0.10 | 0.46 | 0.38 | 95 | 1006.4 |
| 20260506200025 | 12 | 180 | 8.0 | 16.1 | 0.10 | 0.46 | 0.38 | 95 | 1006.1 |
| 20260506195331 | 12 | 150 | 6.4 | 17.7 | 0.10 | 0.43 | 0.36 | 95 | 1006.5 |
| 20260506194628 | 12 | 199 | 11.3 | 17.7 | 0.18 | 0.43 | 0.36 | 94 | 1006.2 |
| 20260506194353 | 12 | 242 | 9.7 | 19.3 | 0.20 | 0.43 | 0.36 | 95 | 1006.5 |
| 20260506193325 | 12 | 159 | 8.0 | 16.1 | 0.25 | 0.41 | 0.33 | 94 | 1006.4 |
| 20260506193103 | 12 | 174 | 9.7 | 16.1 | 0.28 | 0.41 | 0.33 | 94 | 1006.1 |
| 20260506192321 | 12 | 204 | 9.7 | 22.5 | 0.33 | 0.41 | 0.33 | 94 | 1006.4 |
| 20260506191521 | 12 | 192 | 12.9 | 22.5 | 0.30 | 0.38 | 0.30 | 93 | 1006.4 |
| 20260506191319 | 12 | 192 | 9.7 | 19.3 | 0.30 | 0.38 | 0.30 | 93 | 1006.7 |
| 20260506190334 | 13 | 200 | 6.4 | 12.9 | 0.28 | 0.36 | 0.28 | 93 | 1006.8 |
| 20260506190020 | 12 | 203 | 6.4 | 12.9 | 0.25 | 0.33 | 0.25 | 92 | 1006.8 |
| 20260506185333 | 13 | 222 | 4.8 | 19.3 | 0.23 | 0.30 | 0.23 | 92 | 1007.0 |
| 20260506184529 | 12 | 208 | 6.4 | 19.3 | 0.15 | 0.23 | 0.15 | 91 | 1006.6 |
| 20260506184334 | 13 | 173 | 8.0 | 19.3 | 0.15 | 0.23 | 0.15 | 90 | 1007.0 |
| 20260506183328 | 13 | 172 | 12.9 | 24.1 | 0.08 | 0.15 | 0.08 | 89 | 1006.7 |
| 20260506183046 | 13 | 178 | 12.9 | 24.1 | 0.03 | 0.10 | 0.03 | 88 | 1006.3 |
| 20260506182347 | 13 | 215 | 8.0 | 17.7 | 0.00 | 0.08 | 0.00 | 87 | 1006.6 |
| 20260506181554 | 13 | 150 | 6.4 | 17.7 | 0.00 | 0.08 | 0.00 | 86 | 1006.2 |
| 20260506181340 | 14 | 152 | 9.7 | 17.7 | 0.00 | 0.08 | 0.00 | 86 | 1006.5 |
| 20260506180322 | 15 | 116 | 11.3 | 22.5 | 0.00 | 0.08 | 0.00 | 83 | 1006.7 |
| 20260506180104 | 15 | 151 | 8.0 | 16.1 | 0.00 | 0.08 | 0.00 | 83 | 1006.3 |
| 20260506175319 | 15 | 192 | 9.7 | 16.1 | 0.00 | 0.08 | 0.00 | 81 | 1006.6 |
| 20260506174525 | 15 | 135 | 8.0 | 20.9 | 0.00 | 0.08 | 0.00 | 81 | 1006.3 |
| 20260506174322 | 15 | 196 | 8.0 | 20.9 | 0.00 | 0.08 | 0.00 | 80 | 1006.6 |
| 20260506173316 | 15 | 189 | 9.7 | 17.7 | 0.00 | 0.08 | 0.00 | 80 | 1006.7 |
| 20260506173040 | 15 | 200 | 6.4 | 17.7 | 0.00 | 0.08 | 0.00 | 79 | 1006.5 |
| 20260506172331 | 16 | 160 | 11.3 | 19.3 | 0.00 | 0.08 | 0.00 | 80 | 1007.0 |
| 20260506171504 | 15 | 173 | 8.0 | 16.1 | 0.00 | 0.08 | 0.00 | 80 | 1006.9 |
| 20260506171323 | 16 | 139 | 11.3 | 17.7 | 0.00 | 0.08 | 0.00 | 80 | 1007.2 |
| 20260506170316 | 16 | 125 | 6.4 | 11.3 | 0.00 | 0.08 | 0.00 | 81 | 1007.5 |
| 20260506170022 | 15 | 165 | 4.8 | 17.7 | 0.00 | 0.08 | 0.00 | 80 | 1007.1 |
| 20260506165333 | 15 | 212 | 8.0 | 16.1 | 0.00 | 0.08 | 0.00 | 80 | 1007.6 |
| 20260506164524 | 15 | 137 | 11.3 | 19.3 | 0.00 | 0.08 | 0.00 | 80 | 1007.5 |
| 20260506164331 | 16 | 141 | 8.0 | 19.3 | 0.00 | 0.08 | 0.00 | 80 | 1007.9 |
| 20260506163323 | 16 | 156 | 11.3 | 19.3 | 0.00 | 0.08 | 0.00 | 80 | 1008.2 |
| 20260506163101 | 15 | 160 | 8.0 | 16.1 | 0.00 | 0.08 | 0.00 | 80 | 1007.8 |
| 20260506162316 | 15 | 193 | 6.4 | 11.3 | 0.00 | 0.08 | 0.00 | 81 | 1008.2 |
| 20260506161508 | 15 | 122 | 3.2 | 9.7 | 0.00 | 0.08 | 0.00 | 81 | 1008.1 |
| 20260506161317 | 15 | 140 | 6.4 | 12.9 | 0.00 | 0.08 | 0.00 | 81 | 1008.5 |
| 20260506160330 | 15 | 155 | 6.4 | 11.3 | 0.00 | 0.08 | 0.00 | 81 | 1008.5 |
| 20260506160025 | 15 | 186 | 6.4 | 11.3 | 0.00 | 0.08 | 0.00 | 81 | 1008.4 |
| 20260506155333 | 15 | 170 | 3.2 | 6.4 | 0.00 | 0.08 | 0.00 | 81 | 1008.9 |
| 20260506154623 | 14 | 159 | 4.8 | 12.9 | 0.00 | 0.08 | 0.00 | 81 | 1008.6 |
| 20260506154329 | 15 | 150 | 8.0 | 12.9 | 0.00 | 0.08 | 0.00 | 81 | 1009.0 |
| 20260506153332 | 15 | 136 | 3.2 | 12.9 | 0.00 | 0.08 | 0.00 | 81 | 1008.9 |
| 20260506153016 | 15 | 142 | 4.8 | 12.9 | 0.00 | 0.08 | 0.00 | 81 | 1008.5 |
| 20260506152327 | 15 | 153 | 4.8 | 8.0 | 0.00 | 0.08 | 0.00 | 80 | 1009.0 |
| 20260506151550 | 15 | 130 | 1.6 | 11.3 | 0.00 | 0.08 | 0.00 | 81 | 1008.7 |
| 20260506151349 | 15 | 118 | 1.6 | 11.3 | 0.00 | 0.08 | 0.00 | 80 | 1008.9 |
| 20260506150346 | 15 | 112 | 3.2 | 9.7 | 0.00 | 0.08 | 0.00 | 80 | 1008.9 |
| 20260506150029 | 15 | 107 | 4.8 | 9.7 | 0.00 | 0.08 | 0.00 | 80 | 1008.5 |
| 20260506145327 | 15 | 130 | 3.2 | 9.7 | 0.00 | 0.08 | 0.00 | 80 | 1008.7 |
| 20260506144602 | 15 | 149 | 4.8 | 9.7 | 0.00 | 0.08 | 0.00 | 80 | 1008.3 |
| 20260506144327 | 15 | 153 | 4.8 | 9.7 | 0.00 | 0.08 | 0.00 | 80 | 1008.5 |
| 20260506143321 | 15 | 198 | 4.8 | 8.0 | 0.00 | 0.08 | 0.00 | 81 | 1008.3 |
| 20260506143020 | 15 | 146 | 1.6 | 9.7 | 0.00 | 0.08 | 0.00 | 81 | 1008.1 |
| 20260506142321 | 15 | 186 | 4.8 | 12.9 | 0.00 | 0.08 | 0.00 | 82 | 1008.6 |
| 20260506141549 | 14 | 144 | 6.4 | 12.9 | 0.00 | 0.08 | 0.00 | 82 | 1008.3 |
| 20260506141315 | 14 | 156 | 6.4 | 11.3 | 0.00 | 0.08 | 0.00 | 81 | 1008.8 |
| 20260506140314 | 14 | 227 | 6.4 | 9.7 | 0.00 | 0.08 | 0.00 | 83 | 1009.0 |
| 20260506140010 | 13 | 196 | 1.6 | 8.0 | 0.00 | 0.08 | 0.00 | 83 | 1008.8 |
| 20260506135317 | 13 | 175 | 3.2 | 11.3 | 0.00 | 0.08 | 0.00 | 83 | 1009.2 |
| 20260506134542 | 13 | 196 | 3.2 | 9.7 | 0.00 | 0.08 | 0.00 | 83 | 1008.9 |
| 20260506134340 | 13 | 163 | 4.8 | 9.7 | 0.00 | 0.08 | 0.00 | 83 | 1009.2 |
| 20260506133333 | 13 | 217 | 3.2 | 9.7 | 0.00 | 0.08 | 0.00 | 84 | 1009.3 |
| 20260506133019 | 13 | 217 | 3.2 | 9.7 | 0.00 | 0.08 | 0.00 | 84 | 1009.0 |
| 20260506132313 | 13 | 210 | 4.8 | 9.7 | 0.00 | 0.08 | 0.00 | 83 | 1009.2 |
| 20260506131550 | 13 | 142 | 3.2 | 8.0 | 0.00 | 0.08 | 0.00 | 83 | 1008.6 |
| 20260506131355 | 13 | 211 | 3.2 | 8.0 | 0.00 | 0.08 | 0.00 | 83 | 1009.0 |
| 20260506130330 | 13 | 194 | 1.6 | 11.3 | 0.00 | 0.08 | 0.00 | 83 | 1009.2 |
| 20260506130051 | 12 | 194 | 6.4 | 11.3 | 0.00 | 0.08 | 0.00 | 83 | 1008.8 |
| 20260506125352 | 13 | 168 | 4.8 | 9.7 | 0.00 | 0.08 | 0.00 | 84 | 1009.1 |
| 20260506124500 | 12 | 140 | 1.6 | 9.7 | 0.00 | 0.08 | 0.00 | 84 | 1008.8 |
| 20260506124327 | 12 | 137 | 4.8 | 9.7 | 0.00 | 0.08 | 0.00 | 84 | 1009.1 |
| 20260506123323 | 12 | 151 | 6.4 | 12.9 | 0.00 | 0.08 | 0.00 | 85 | 1009.2 |
| 20260506123022 | 12 | 140 | 3.2 | 6.4 | 0.00 | 0.08 | 0.00 | 85 | 1008.9 |
| 20260506122344 | 12 | 116 | 3.2 | 6.4 | 0.00 | 0.08 | 0.00 | 86 | 1009.3 |
| 20260506121539 | 11 | 127 | 3.2 | 6.4 | 0.00 | 0.08 | 0.00 | 88 | 1009.1 |
| 20260506121330 | 11 | 128 | 0.0 | 6.4 | 0.00 | 0.08 | 0.00 | 89 | 1009.5 |
| 20260506120343 | 11 | 190 | 3.2 | 9.7 | 0.00 | 0.08 | 0.00 | 87 | 1009.7 |
| 20260506120030 | 11 | 200 | 1.6 | 9.7 | 0.00 | 0.08 | 0.00 | 87 | 1009.4 |
| 20260506115323 | 11 | 131 | 1.6 | 6.4 | 0.00 | 0.08 | 0.00 | 88 | 1009.7 |
| 20260506114607 | 10 | 135 | 3.2 | 9.7 | 0.00 | 0.08 | 0.00 | 88 | 1009.5 |
| 20260506114316 | 11 | 134 | 3.2 | 9.7 | 0.00 | 0.08 | 0.00 | 88 | 1009.8 |
| 20260506113314 | 11 | 174 | 1.6 | 11.3 | 0.00 | 0.08 | 0.00 | 88 | 1009.9 |
| 20260506113022 | 10 | 173 | 4.8 | 11.3 | 0.00 | 0.08 | 0.00 | 87 | 1009.5 |
| 20260506112321 | 10 | 127 | 1.6 | 11.3 | 0.00 | 0.08 | 0.00 | 87 | 1010.1 |